Terminal Aerodrome Forecast
Issued by NWS

Home | Current Version | Previous Version | Text Only | Print | Product List | Glossary On
Versions: 1 2 3 4 5 6 7 8 9 10 11 12 13 14 15 16 17
060
FTUS43 KMQT 271135
TAFSAW
TAF
KSAW 271135Z 2712/2812 00000KT P6SM BKN150
     FM271300 16003KT P6SM VCSH BKN035
     FM271600 17006KT P6SM VCSH OVC025
     FM280100 14005KT P6SM VCSH OVC008
     FM280500 21005KT 4SM BR BKN003
     FM280700 24005KT P6SM BKN015
     FM281000 25005KT P6SM SCT030=

USA.gov is the U.S. government's official web portal to all federal, state and local government web resources and services.